This is the latest recevied weather packets stored in our database for station/object 9A3XK-13. If no packets are shown the sender has not sent any weather packets the latest 1 day(s).
| Time | Temp. | Humidity | Pressure | Rain* | Wind** | Luminosity | Snow |
|---|---|---|---|---|---|---|---|
| 1777962316 | 16.67° C | 69% | 1014.4 hPa | 0 mm | 1.34 m/s, 203° | 427 W/m² | - |
| 1777962016 | 16.11° C | 69% | 1014.3 hPa | 0 mm | 1.34 m/s, 203° | 419 W/m² | - |
| 1777961716 | 15.56° C | 69% | 1014.3 hPa | 0 mm | 1.34 m/s, 225° | 387 W/m² | - |
| 1777961416 | 15.56° C | 70% | 1014.2 hPa | 0 mm | 1.34 m/s, 225° | 339 W/m² | - |
| 1777961116 | 15° C | 71% | 1014.2 hPa | 0 mm | 0.89 m/s, 225° | 321 W/m² | - |
| 1777960816 | 14.44° C | 71% | 1014.1 hPa | 0 mm | 1.34 m/s, 203° | 329 W/m² | - |
| 1777960516 | 14.44° C | 72% | 1014.2 hPa | 0 mm | 1.34 m/s, 225° | 292 W/m² | - |
| 1777960216 | 13.89° C | 73% | 1014.2 hPa | 0 mm | 0.89 m/s, 203° | 126 W/m² | - |
| 1777959917 | 13.33° C | 74% | 1014.2 hPa | 0 mm | 0.89 m/s, 203° | 62 W/m² | - |
| 1777959616 | 13.33° C | 74% | 1014.1 hPa | 0 mm | 1.34 m/s, 225° | 58 W/m² | - |
| 1777959316 | 12.78° C | 74% | 1014.2 hPa | 0 mm | 0.89 m/s, 225° | 72 W/m² | - |
| 1777959016 | 12.78° C | 74% | 1014.2 hPa | 0 mm | 1.34 m/s, 225° | 194 W/m² | - |
| 1777958717 | 12.22° C | 75% | 1014.1 hPa | 0 mm | 1.34 m/s, 225° | 230 W/m² | - |
| 1777958416 | 12.22° C | 76% | 1014.2 hPa | 0 mm | 0.89 m/s, 225° | 105 W/m² | - |
| 1777958116 | 11.67° C | 76% | 1014 hPa | 0 mm | 0.89 m/s, 225° | 48 W/m² | - |
| 1777953623 | 9.44° C | 80% | 1013.9 hPa | 0 mm | 0.45 m/s, 203° | 17 W/m² | - |
| 1777953316 | 9.44° C | 80% | 1013.8 hPa | 0 mm | 0.89 m/s, 203° | 14 W/m² | - |
| 1777953016 | 9.44° C | 80% | 1013.9 hPa | 0 mm | 0.89 m/s, 225° | 12 W/m² | - |
| 1777952715 | 9.44° C | 80% | 1013.8 hPa | 0 mm | 0.89 m/s, 225° | 10 W/m² | - |
| 1777951816 | 9.44° C | 79% | 1013.8 hPa | 0 mm | 0.45 m/s, 225° | 2 W/m² | - |
| 1777951517 | 9.44° C | 79% | 1013.8 hPa | 0 mm | 0.45 m/s, 225° | 0 W/m² | - |
| 1777951216 | 9.44° C | 79% | 1013.9 hPa | 0 mm | 0.45 m/s, 225° | 0 W/m² | - |
| 1777950916 | 9.44° C | 79% | 1013.9 hPa | 0 mm | 0.89 m/s, 180° | 0 W/m² | - |
| 1777950316 | 9.44° C | 78% | 1013.7 hPa | 0 mm | 0.45 m/s, 180° | 0 W/m² | - |
| 1777949416 | 10° C | 78% | 1014.1 hPa | 0 mm | 0.45 m/s, 180° | 0 W/m² | - |
* Rain latest hour (hover to see other rain measurements)
** Current wind speed in m/s (hover to see current wind gust speed)